星链-37997(STARLINK-37997)

导读

STARLINK-37997(NORAD编号69682)是美国SpaceX公司星链(Starlink)低轨宽带互联网星座的组网卫星,由猎鹰9号火箭发射入轨,属于第二代V2 Mini批次卫星,单星质量约575-790千克,设计寿命5年以上。该卫星运行于约480-550公里高度的近地轨道,搭载Ku/Ka波段通信天线与霍尔电推进系统,可支持星间激光链路及手机直连服务,主要为全球地面用户提供低延迟卫星互联网接入,是星链全球覆盖组网的在轨运作节点之一。

Basic Information
目录编号:
69682
目录名称:
STARLINK-37997
国际标识:
2026-145F
轨道中心:
EARTH
卫星名称:
星链-37997
卫星全名:
星链-37997(STARLINK-37997)
卫星状态:
在轨 (已飞行71 天)
发射日期:
2026-06-25 UTC
国别 :
美国 (US)
星等 :
--
Orbit Information
数据来源 国际轨道数据 AOE轨道数据
星历时间 2026-09-03T21:13:34+0800
1天前
查看轨道信息
2026-09-02T16:00:00+0800
2天前
查看轨道信息
半长轴 6843.667km 6843.602km
偏心率 0.0002016 0.0001459
轨道倾角 97.284° 97.280°
近地点辐角 92.016° 105.633°
升交点赤经 93.424° 92.224°
平近点角 268.132° 16.426°
近地点 464.15km 464.466km
远地点 466.91km 466.464km
周期 93.906分钟 93.905分钟
每日圈数 15.334495 15.334716
Detailed Information
固有亮度:
5
最大亮度:
2.5
卫星平台:
Starlink V1.0
覆盖范围:
全球
运营商:
太空探索技术公司
运营商所在国:
美国
制造商(研发单位):
太空探索技术公司
制造商所在国:
美国
使用方式:
暂无
Satellite Introduction
Starlink 计划是 SpaceX 推出的全球卫星互联网项目,通过发射低轨道卫星,为全球尤其是偏远地区提供高速、低延迟的互联网服务。自 2019 年起,Starlink 已部署数千颗卫星,旨在缩小全球数字鸿沟,推动互联网普及。该项目还为军事、航空等行业提供通信支持,带来广泛经济效益。
2D Orbit Map
3D Orbit Map
Orbit Altitude Analysis Chart
Orbit Inclination Analysis Chart
Orbit Comprehensive Analysis Chart
View Comprehensive Chart
Conjunction Data List
Event ID Objects TCA Miss Dist (km) Collision Risk Probability Collision Risk Index (CRI) Action
CDM_260902-083806-519006-968221
2026-09-02T
08:38:11+0000
1.231 km
极远距离
4.379544E-6 低风险 0.48
CDM_260904-221805-246306-968221
2026-09-04T
22:18:50+0000
2.213 km
极远距离
2.162395E-6 低风险 0.42
CDM_260905-131206-959706-968221
2026-09-05T
13:12:46+0000
2.106 km
极远距离
2.054147E-6 低风险 0.41
CDM_260905-011205-794206-968221
2026-09-05T
01:12:42+0000
2.422 km
极远距离
1.857915E-6 低风险 0.4
CDM_260902-082606-027906-968221
2026-09-02T
08:26:36+0000
2.818 km
极远距离
1.408082E-6 低风险 0.38
CDM_260902-092506-519006-968221
2026-09-02T
09:25:10+0000
1.814 km
极远距离
1.369446E-6 低风险 0.38
CDM_260904-194905-185606-968221
2026-09-04T
19:49:37+0000
2.942 km
极远距离
1.367276E-6 低风险 0.38
CDM_260904-134205-246306-968221
2026-09-04T
13:42:13+0000
2.899 km
极远距离
1.344428E-6 低风险 0.38
CDM_260905-082805-478706-968221
2026-09-05T
08:28:12+0000
2.947 km
极远距离
1.33752E-6 低风险 0.38
CDM_260905-113504-736606-968221
2026-09-05T
11:35:37+0000
2.962 km
极远距离
1.333775E-6 低风险 0.38